QIANFAN-46 (62247 NORAD) Tracking and Keplerian Element Data

This shows tracking and keplerian element data for the satellite.

Feedback or suggestion? Click here.




ElementValue
Catalog62247
NameQIANFAN-46
Epoch Orbit5694
Epoch Day34.78247899
Epoch Year2025
RAAN73.203
Inclination88.9885
Eccentricity0.0016262
Argument of Perigee32.9801
Mean Anonmoly327.2398
Mean Motion14.16706993
Decay Rate6.92E-06
L11 62247U 24232L 25034.78247899 .00000692 00000+0 33897-3 0 9991
L22 62247 88.9885 73.2030 0016262 32.9801 327.2398 14.16706993 56948



Live tracking and technical data element details for QIANFAN-46 (NORAD 62247). QIANFAN-46 can be tracked NOW for your location showing map with azimuth and elevation plus other details from your city location.







IsCatalogInMostPopularTable: catalog: 62247, numindb: 19
Update: records affected: 1



GetName: 62247 QIANFAN-46

Hit Count: updated at: Sun, 18 May 2025 22:16:55 GMT